Погода в Шекеринцах

Украина / Хмельницкая область     50°08′16″N   26°27′04″E
темп.,
°C
ветер,
м/с
пор.,
м/с
влажн.,
%
обл.,
%
осадки,
мм/ч
давл.,
гПа
погр.,
м
26 июля, пн
пн2600:00+20юв376295 0.0 1018154
03:00+17юв37732 0.0 1018108
06:00+16юв387616 0.0 1018128
09:00+20юв4106393 0.0 1018372
12:00+24ююв595494 0.0 1018817
15:00+29ю783957 0.0 10172053
18:00+26ююв485254 0.0 10171000
21:00+22юв496773 0.0 1017148
27 июля, вт
вт2700:00+19ююв4107639 0.0 1018191
03:00+17юв411781 0.1 1017193
06:00+17ююв5137732 0.3 1016277
09:00+20ю5107876 2.7 1016350
12:00+26ю685656 1.7 1015596
15:00+30ю664786 1.7 1014956
18:00+28ю475487 0.0 1013496
21:00+21ююв118563 1.8 101311
28 июля, ср
ср2800:00+20ююз369139 0.4 1014102
03:00+19зсз2394100 0.5 101443
06:00+18сз36960 0.0 1015133
09:00+22сз3482100 0.0 1015409
12:00+26сз335971 0.0 10151118
15:00+28зсз334847 0.0 10141481
18:00+28сз33475 0.0 10141521
21:00+23зсз226879 0.0 101411
29 июля, чт
чт2900:00+20ю227324 0.1 101411
03:00+20вюв227893 0.1 101314
06:00+19ю228963 1.8 101334
09:00+23ю347616 2.1 1012337
12:00+27з446115 0.0 10121021
15:00+28з665893 0.0 10121318
18:00+27з78604 0.1 10111373
21:00+21зсз378237 0.1 1013139
30 июля, пт
пт3000:00+19зсз36930 0.0 1013111
03:00+18зсз35940 0.0 1012100
06:00+17зсз22941 0.0 101323
09:00+22сз22730 0.0 1013351
12:00+27зюз22500 0.0 10121156
15:00+29юз33420 0.0 10101391
18:00+30юз23410 0.0 10091426
21:00+24ююв33600 0.0 100832